GW4935 Weather Reports


Display with metric or nautical units.
time (UTC)temp
F
wind
direction
speed
MPH
gust
MPH
rain 1hr
in
rain 24hr
in
rain mn
in
humidity
%
barometer
mb
20260905234606 91 0 0.0 2.0 0.00 0.00 0.00 59 1010.4
20260905234044 92 234 0.0 3.0 0.00 0.00 0.00 58 1010.5
20260905233542 92 0 0.0 3.0 0.00 0.00 0.00 58 1010.6
20260905233117 92 272 1.0 3.0 0.00 0.00 0.00 57 1010.6
20260905232543 93 221 1.0 4.0 0.00 0.00 0.00 56 1010.6
20260905232043 93 218 2.0 4.0 0.00 0.00 0.00 56 1010.6
20260905231608 93 223 1.0 3.0 0.00 0.00 0.00 55 1010.6
20260905231046 94 238 1.0 2.0 0.00 0.00 0.00 54 1010.5
20260905230544 94 225 0.0 3.0 0.00 0.00 0.00 53 1010.5
20260905230108 94 257 0.0 4.0 0.00 0.00 0.00 52 1010.5
20260905225544 95 267 1.0 4.0 0.00 0.00 0.00 51 1010.5
20260905225044 95 256 2.0 4.0 0.00 0.00 0.00 51 1010.5
20260905224607 95 235 1.0 5.0 0.00 0.00 0.00 51 1010.4
20260905224044 95 235 0.0 5.0 0.00 0.00 0.00 51 1010.6
20260905223543 95 216 1.0 5.0 0.00 0.00 0.00 50 1010.4
20260905223108 95 218 3.0 5.0 0.00 0.00 0.00 48 1010.5
20260905222544 96 211 2.0 5.0 0.00 0.00 0.00 48 1010.4
20260905222043 96 239 2.0 6.0 0.00 0.00 0.00 48 1010.5
20260905221602 96 286 2.0 6.0 0.00 0.00 0.00 49 1010.4
20260905221043 96 263 2.0 7.0 0.00 0.00 0.00 49 1010.6
20260905220544 97 234 4.0 7.0 0.00 0.00 0.00 47 1010.4
20260905220108 97 237 3.0 7.0 0.00 0.00 0.00 49 1010.6
20260905215544 97 325 2.0 6.0 0.00 0.00 0.00 49 1010.5
20260905215043 97 203 4.0 7.0 0.00 0.00 0.00 48 1010.5
20260905214605 97 250 3.0 7.0 0.00 0.00 0.00 47 1010.6
20260905214043 97 251 3.0 7.0 0.00 0.00 0.00 47 1010.5
20260905213544 97 0 1.0 6.0 0.00 0.00 0.00 45 1010.6
20260905213113 97 279 3.0 6.0 0.00 0.00 0.00 46 1010.6
20260905212544 97 33 1.0 6.0 0.00 0.00 0.00 46 1010.7
20260905212043 97 329 3.0 8.0 0.00 0.00 0.00 46 1010.7
20260905211613 97 265 3.0 8.0 0.00 0.00 0.00 48 1010.8
20260905211045 97 296 1.0 6.0 0.00 0.00 0.00 48 1010.8
20260905210544 97 286 1.0 9.0 0.00 0.00 0.00 46 1010.8
20260905210114 97 246 4.0 9.0 0.00 0.00 0.00 48 1010.9
20260905205543 97 252 3.0 7.0 0.00 0.00 0.00 48 1010.9
20260905205044 97 221 3.0 6.0 0.00 0.00 0.00 47 1010.9
20260905204606 97 302 2.0 6.0 0.00 0.00 0.00 48 1011.0
20260905204044 97 238 2.0 8.0 0.00 0.00 0.00 48 1011.0
20260905203544 97 0 3.0 8.0 0.00 0.00 0.00 49 1011.1
20260905203107 97 232 2.0 10.0 0.00 0.00 0.00 51 1011.1
20260905202545 96 294 5.0 10.0 0.00 0.00 0.00 50 1011.3
20260905202042 96 0 1.0 4.0 0.00 0.00 0.00 48 1011.5
20260905201600 96 279 1.0 8.0 0.00 0.00 0.00 50 1011.5
20260905201043 96 340 2.0 8.0 0.00 0.00 0.00 50 1011.6
20260905200547 97 252 3.0 8.0 0.00 0.00 0.00 47 1011.7
20260905195543 97 317 1.0 4.0 0.00 0.00 0.00 51 1011.8
20260905195044 97 186 1.0 4.0 0.00 0.00 0.00 47 1011.7
20260905194607 96 257 1.0 4.0 0.00 0.00 0.00 48 1011.7
20260905194044 95 0 0.0 4.0 0.00 0.00 0.00 51 1011.8
20260905193543 95 282 1.0 4.0 0.00 0.00 0.00 50 1011.9
20260905193100 96 254 2.0 8.0 0.00 0.00 0.00 49 1012.0
20260905192543 96 0 3.0 8.0 0.00 0.00 0.00 49 1012.0
20260905192042 96 279 2.0 7.0 0.00 0.00 0.00 54 1012.1
20260905191559 96 269 3.0 6.0 0.00 0.00 0.00 50 1012.1
20260905191043 95 277 1.0 7.0 0.00 0.00 0.00 51 1012.2
20260905190546 96 194 2.0 7.0 0.00 0.00 0.00 52 1012.2
20260905190104 95 296 1.0 5.0 0.00 0.00 0.00 52 1012.2
20260905185544 95 17 2.0 4.0 0.00 0.00 0.00 51 1012.3
20260905185042 95 19 1.0 2.0 0.00 0.00 0.00 51 1012.3
20260905184611 96 0 0.0 2.0 0.00 0.00 0.00 50 1012.4
20260905184041 96 0 0.0 2.0 0.00 0.00 0.00 50 1012.5
20260905183544 95 279 0.0 4.0 0.00 0.00 0.00 50 1012.5
20260905183119 94 312 2.0 9.0 0.00 0.00 0.00 58 1012.7
20260905182543 94 314 3.0 9.0 0.00 0.00 0.00 52 1012.8
20260905182044 95 301 5.0 9.0 0.00 0.00 0.00 52 1012.9
20260905181606 94 321 2.0 6.0 0.00 0.00 0.00 52 1013.0
20260905181043 94 295 3.0 9.0 0.00 0.00 0.00 56 1013.0
20260905180543 95 190 4.0 9.0 0.00 0.00 0.00 51 1013.3
20260905180108 96 292 2.0 5.0 0.00 0.00 0.00 54 1013.3
20260905175547 96 189 1.0 4.0 0.00 0.00 0.00 54 1013.3
20260905175046 95 0 0.0 4.0 0.00 0.00 0.00 51 1013.4
20260905174602 94 0 1.0 4.0 0.00 0.00 0.00 54 1013.4
20260905174045 94 0 1.0 8.0 0.00 0.00 0.00 53 1013.4
20260905173544 95 71 3.0 8.0 0.00 0.00 0.00 50 1013.4
20260905173059 95 94 2.0 5.0 0.00 0.00 0.00 51 1013.5
20260905172544 95 64 2.0 4.0 0.00 0.00 0.00 51 1013.5
20260905172043 95 313 1.0 5.0 0.00 0.00 0.00 50 1013.6
20260905171559 94 0 2.0 6.0 0.00 0.00 0.00 49 1013.6
20260905171044 95 312 3.0 6.0 0.00 0.00 0.00 53 1013.6
20260905170544 94 324 1.0 8.0 0.00 0.00 0.00 53 1013.7
20260905170104 94 49 3.0 8.0 0.00 0.00 0.00 55 1013.8
20260905165542 94 269 2.0 6.0 0.00 0.00 0.00 55 1013.7
20260905165044 94 218 1.0 5.0 0.00 0.00 0.00 54 1013.9
20260905164609 94 342 3.0 5.0 0.00 0.00 0.00 54 1013.9
20260905164043 93 63 2.0 7.0 0.00 0.00 0.00 55 1014.0
20260905163548 93 317 3.0 7.0 0.00 0.00 0.00 54 1014.0
20260905163107 93 283 2.0 7.0 0.00 0.00 0.00 55 1014.0
20260905162545 93 21 1.0 4.0 0.00 0.00 0.00 55 1014.1
20260905162044 93 349 1.0 4.0 0.00 0.00 0.00 57 1014.1
20260905161600 93 29 1.0 4.0 0.00 0.00 0.00 56 1014.2
20260905161044 92 22 2.0 7.0 0.00 0.00 0.00 57 1014.1
20260905160544 92 310 3.0 7.0 0.00 0.00 0.00 62 1014.2
20260905160105 92 34 1.0 7.0 0.00 0.00 0.00 59 1014.2
20260905155541 92 296 1.0 7.0 0.00 0.00 0.00 61 1014.1
20260905155043 92 306 3.0 9.0 0.00 0.00 0.00 61 1014.2
20260905154606 92 298 2.0 9.0 0.00 0.00 0.00 61 1014.2
20260905154042 92 360 5.0 9.0 0.00 0.00 0.00 61 1014.2
20260905153544 91 305 2.0 6.0 0.00 0.00 0.00 60 1014.3
20260905153110 91 301 2.0 7.0 0.00 0.00 0.00 63 1014.4
20260905152543 91 319 3.0 7.0 0.00 0.00 0.00 62 1014.5
20260905152044 91 329 4.0 7.0 0.00 0.00 0.00 61 1014.4
20260905151611 91 313 2.0 4.0 0.00 0.00 0.00 62 1014.4
20260905151044 90 9 1.0 6.0 0.00 0.00 0.00 67 1014.5
20260905150543 89 281 2.0 6.0 0.00 0.00 0.00 64 1014.5
20260905150100 89 307 3.0 6.0 0.00 0.00 0.00 66 1014.5
20260905145544 89 269 3.0 5.0 0.00 0.00 0.00 65 1014.5
20260905145042 89 299 3.0 5.0 0.00 0.00 0.00 68 1014.5
20260905144558 88 297 3.0 5.0 0.00 0.00 0.00 65 1014.5
20260905144043 88 345 4.0 5.0 0.00 0.00 0.00 66 1014.5
20260905143544 88 314 3.0 5.0 0.00 0.00 0.00 66 1014.5
20260905143102 88 291 1.0 5.0 0.00 0.00 0.00 70 1014.5
20260905142542 87 337 2.0 4.0 0.00 0.00 0.00 68 1014.6
20260905142044 87 325 0.0 3.0 0.00 0.00 0.00 72 1014.5
20260905141607 86 320 1.0 4.0 0.00 0.00 0.00 73 1014.5
20260905141047 86 329 1.0 4.0 0.00 0.00 0.00 73 1014.5
20260905140542 86 293 1.0 4.0 0.00 0.00 0.00 74 1014.5
20260905140109 85 306 2.0 4.0 0.00 0.00 0.00 73 1014.5
20260905135542 85 289 2.0 4.0 0.00 0.00 0.00 76 1014.6
20260905135042 84 287 0.0 3.0 0.00 0.00 0.00 78 1014.5
20260905134604 84 288 0.0 3.0 0.00 0.00 0.00 78 1014.6
20260905134043 83 0 0.0 0.0 0.00 0.00 0.00 82 1014.6
20260905133543 82 0 0.0 0.0 0.00 0.00 0.00 84 1014.5
20260905133100 81 0 0.0 0.0 0.00 0.00 0.00 84 1014.6
20260905132542 80 0 0.0 0.0 0.00 0.00 0.00 86 1014.6
20260905132045 80 0 0.0 0.0 0.00 0.00 0.00 85 1014.5
20260905131617 80 0 0.0 0.0 0.00 0.00 0.00 86 1014.5
20260905131042 79 0 0.0 2.0 0.00 0.00 0.00 87 1014.5
20260905130545 78 0 0.0 2.0 0.00 0.00 0.00 88 1014.4
20260905130058 77 0 0.0 2.0 0.00 0.00 0.00 89 1014.4
20260905125542 77 0 0.0 2.0 0.00 0.00 0.00 90 1014.5
20260905125042 76 0 0.0 0.0 0.00 0.00 0.00 91 1014.5
20260905124608 75 0 0.0 0.0 0.00 0.00 0.00 91 1014.5
20260905124042 75 0 0.0 0.0 0.00 0.00 0.00 91 1014.4
20260905123539 74 0 0.0 0.0 0.00 0.00 0.00 91 1014.5
20260905123110 74 0 0.0 0.0 0.00 0.00 0.00 91 1014.4
20260905122540 73 0 0.0 1.0 0.00 0.00 0.00 92 1014.4
20260905122039 73 0 0.0 1.0 0.00 0.00 0.00 92 1014.4
20260905121602 72 0 0.0 0.0 0.00 0.00 0.00 92 1014.3
20260905121040 72 0 0.0 0.0 0.00 0.00 0.00 92 1014.3
20260905120542 72 0 0.0 0.0 0.00 0.00 0.00 92 1014.3
20260905120059 72 0 0.0 0.0 0.00 0.00 0.00 92 1014.2
20260905115542 72 0 0.0 0.0 0.00 0.00 0.00 92 1014.2
20260905115042 72 0 0.0 0.0 0.00 0.00 0.00 92 1014.1
20260905114557 73 0 0.0 0.0 0.00 0.00 0.00 92 1014.1
20260905114046 72 0 0.0 0.0 0.00 0.00 0.00 92 1014.0
20260905113540 72 0 0.0 0.0 0.00 0.00 0.00 92 1014.0
20260905113102 72 0 0.0 0.0 0.00 0.00 0.00 92 1014.0
20260905112540 72 0 0.0 0.0 0.00 0.00 0.00 92 1013.9
20260905112042 72 0 0.0 0.0 0.00 0.00 0.00 92 1013.9
20260905111600 72 0 0.0 0.0 0.00 0.00 0.00 92 1013.8
20260905111042 72 0 0.0 0.0 0.00 0.00 0.00 92 1013.8
20260905110544 72 0 0.0 0.0 0.00 0.00 0.00 92 1013.7
20260905110101 72 0 0.0 0.0 0.00 0.00 0.00 92 1013.8
20260905105544 72 0 0.0 0.0 0.00 0.00 0.00 91 1013.6
20260905105044 72 0 0.0 0.0 0.00 0.00 0.00 91 1013.6
20260905104606 72 0 0.0 0.0 0.00 0.00 0.00 91 1013.7
20260905104044 72 0 0.0 0.0 0.00 0.00 0.00 90 1013.6
20260905103547 73 0 0.0 0.0 0.00 0.00 0.00 91 1013.6
20260905103111 73 0 0.0 0.0 0.00 0.00 0.00 91 1013.6
20260905102543 73 0 0.0 0.0 0.00 0.00 0.00 91 1013.5
20260905102044 73 0 0.0 0.0 0.00 0.00 0.00 91 1013.4
20260905101607 73 0 0.0 0.0 0.00 0.00 0.00 91 1013.5
20260905101043 73 0 0.0 0.0 0.00 0.00 0.00 91 1013.4
20260905100545 73 0 0.0 0.0 0.00 0.00 0.00 91 1013.5
20260905100124 73 0 0.0 0.0 0.00 0.00 0.00 91 1013.4
20260905095543 72 0 0.0 0.0 0.00 0.00 0.00 91 1013.4
20260905095042 72 0 0.0 0.0 0.00 0.00 0.00 91 1013.4
20260905094558 72 0 0.0 0.0 0.00 0.00 0.00 91 1013.3
20260905094045 72 0 0.0 0.0 0.00 0.00 0.00 91 1013.4
20260905093547 72 0 0.0 0.0 0.00 0.00 0.00 91 1013.3
20260905093106 72 0 0.0 0.0 0.00 0.00 0.00 91 1013.2
20260905092544 72 0 0.0 0.0 0.00 0.00 0.00 91 1013.1
20260905092044 73 0 0.0 0.0 0.00 0.00 0.00 91 1013.1
20260905091605 73 0 0.0 0.0 0.00 0.00 0.00 91 1013.1
20260905091042 73 0 0.0 0.0 0.00 0.00 0.00 90 1013.0
20260905090544 73 0 0.0 0.0 0.00 0.00 0.00 90 1013.1
20260905090135 73 0 0.0 0.0 0.00 0.00 0.00 90 1013.1
20260905085544 73 0 0.0 0.0 0.00 0.00 0.00 90 1013.1
20260905085046 73 0 0.0 0.0 0.00 0.00 0.00 90 1013.1
20260905084603 73 0 0.0 0.0 0.00 0.00 0.00 90 1013.2
20260905084044 73 0 0.0 0.0 0.00 0.00 0.00 90 1013.2
20260905083544 73 0 0.0 0.0 0.00 0.00 0.00 91 1013.3
20260905083110 72 0 0.0 0.0 0.00 0.00 0.00 91 1013.1
20260905082544 72 0 0.0 0.0 0.00 0.00 0.00 91 1013.1
20260905082044 72 0 0.0 0.0 0.00 0.00 0.00 90 1013.2
20260905081601 72 0 0.0 0.0 0.00 0.00 0.00 90 1013.3
20260905081043 73 0 0.0 0.0 0.00 0.00 0.00 90 1013.4
20260905080546 73 0 0.0 0.0 0.00 0.00 0.00 90 1013.4
20260905075543 73 0 0.0 0.0 0.00 0.00 0.00 91 1013.3
20260905075044 72 0 0.0 0.0 0.00 0.00 0.00 91 1013.3
20260905074608 72 0 0.0 0.0 0.00 0.00 0.00 90 1013.2
20260905074042 73 0 0.0 0.0 0.00 0.00 0.00 90 1013.3
20260905073546 73 0 0.0 0.0 0.00 0.00 0.00 90 1013.2
20260905073108 73 0 0.0 0.0 0.00 0.00 0.00 90 1013.3
20260905072544 73 0 0.0 0.0 0.00 0.00 0.00 89 1013.2
20260905072046 73 0 0.0 0.0 0.00 0.00 0.00 89 1013.4
20260905071603 73 0 0.0 0.0 0.00 0.00 0.00 90 1013.4
20260905071047 73 0 0.0 0.0 0.00 0.00 0.00 89 1013.4
20260905070542 73 0 0.0 0.0 0.00 0.00 0.00 87 1013.5
20260905070110 74 0 0.0 0.0 0.00 0.00 0.00 86 1013.5
20260905065544 75 0 0.0 0.0 0.00 0.00 0.00 87 1013.4
20260905065042 75 0 0.0 0.0 0.00 0.00 0.00 87 1013.5
20260905064601 75 0 0.0 0.0 0.00 0.00 0.00 87 1013.5
20260905064043 75 0 0.0 0.0 0.00 0.00 0.00 87 1013.6
20260905063546 74 0 0.0 0.0 0.00 0.00 0.00 88 1013.6
20260905063106 74 0 0.0 0.0 0.00 0.00 0.00 88 1013.6
20260905062543 74 0 0.0 0.0 0.00 0.00 0.00 89 1013.6
20260905062044 74 0 0.0 0.0 0.00 0.00 0.00 88 1013.6
20260905061605 74 0 0.0 0.0 0.00 0.00 0.00 88 1013.5
20260905061045 74 0 0.0 0.0 0.00 0.00 0.00 88 1013.5
20260905060542 74 0 0.0 0.0 0.00 0.00 0.00 88 1013.5
20260905060104 74 0 0.0 0.0 0.00 0.00 0.00 87 1013.4
20260905055547 74 0 0.0 0.0 0.00 0.00 0.00 85 1013.5
20260905055044 75 0 0.0 0.0 0.00 0.00 0.00 84 1013.6
20260905054606 77 0 0.0 0.0 0.00 0.00 0.00 83 1013.5
20260905054044 76 0 0.0 0.0 0.00 0.00 0.00 83 1013.5
20260905053544 76 0 0.0 0.0 0.00 0.00 0.00 83 1013.5
20260905053100 76 0 0.0 0.0 0.00 0.00 0.00 83 1013.6
20260905052542 77 0 0.0 0.0 0.00 0.00 0.00 82 1013.6
20260905052044 77 0 0.0 0.0 0.00 0.00 0.00 82 1013.6
20260905051606 77 0 0.0 0.0 0.00 0.00 0.00 81 1013.5
20260905051043 77 0 0.0 0.0 0.00 0.00 0.00 81 1013.5
20260905050544 77 0 0.0 0.0 0.00 0.00 0.00 82 1013.5
20260905050109 77 0 0.0 0.0 0.00 0.00 0.00 82 1013.5
20260905045542 77 0 0.0 0.0 0.00 0.00 0.00 82 1013.6
20260905045042 77 0 0.0 0.0 0.00 0.00 0.00 82 1013.5
20260905044603 77 0 0.0 0.0 0.00 0.00 0.00 83 1013.6
20260905044042 77 0 0.0 0.0 0.00 0.00 0.00 83 1013.5
20260905043545 77 0 0.0 0.0 0.00 0.00 0.00 83 1013.6
20260905043057 77 0 0.0 0.0 0.00 0.00 0.00 83 1013.6
20260905042542 77 0 0.0 0.0 0.00 0.00 0.00 84 1013.8
20260905042042 77 0 0.0 0.0 0.00 0.00 0.00 84 1013.9
20260905041559 77 0 0.0 0.0 0.00 0.00 0.00 83 1013.9
20260905041042 78 0 0.0 0.0 0.00 0.00 0.00 84 1013.9
20260905040540 77 0 0.0 0.0 0.00 0.00 0.00 85 1013.9
20260905040106 76 0 0.0 3.0 0.00 0.00 0.00 87 1013.9
20260905035542 75 0 0.0 3.0 0.00 0.00 0.00 88 1014.0
20260905035039 76 158 1.0 2.0 0.00 0.00 0.00 85 1014.0
20260905034602 76 0 0.0 0.0 0.00 0.00 0.00 86 1014.1
20260905034040 77 0 0.0 0.0 0.00 0.00 0.00 85 1014.1
20260905033543 77 0 0.0 0.0 0.00 0.00 0.00 86 1014.2
20260905033103 76 0 0.0 2.0 0.00 0.00 0.00 86 1014.3
20260905032542 77 0 0.0 2.0 0.00 0.00 0.00 85 1014.3
20260905032042 78 150 0.0 4.0 0.00 0.00 0.00 84 1014.4
20260905031609 78 0 2.0 4.0 0.00 0.00 0.00 82 1014.3
20260905031042 79 0 0.0 0.0 0.00 0.00 0.00 80 1014.3
20260905030542 79 0 0.0 0.0 0.00 0.00 0.00 81 1014.4
20260905030104 79 0 0.0 0.0 0.00 0.00 0.00 81 1014.3
20260905025541 79 0 0.0 0.0 0.00 0.00 0.00 83 1014.3
20260905025041 78 0 0.0 0.0 0.00 0.00 0.00 84 1014.4
20260905024558 78 0 0.0 0.0 0.00 0.00 0.00 85 1014.3
20260905024042 77 0 0.0 0.0 0.00 0.00 0.00 86 1014.1
20260905023544 77 0 0.0 0.0 0.00 0.00 0.00 85 1014.2
20260905023057 78 0 0.0 0.0 0.00 0.00 0.00 82 1014.2
20260905022539 80 0 0.0 0.0 0.00 0.00 0.00 80 1014.2
20260905022042 81 0 0.0 0.0 0.00 0.00 0.00 77 1014.2
20260905021600 82 0 0.0 0.0 0.00 0.00 0.00 76 1014.2
20260905021038 82 0 0.0 0.0 0.00 0.00 0.00 76 1014.1
20260905020542 82 0 0.0 0.0 0.00 0.00 0.00 76 1014.2
20260905020100 82 0 0.0 0.0 0.00 0.00 0.00 76 1014.1
20260905015555 82 0 0.0 0.0 0.00 0.00 0.00 77 1014.1
20260905015044 81 0 0.0 0.0 0.00 0.00 0.00 79 1014.1
20260905014603 81 0 0.0 0.0 0.00 0.00 0.00 79 1014.1
20260905014042 81 0 0.0 0.0 0.00 0.00 0.00 79 1014.1
20260905013544 82 0 0.0 0.0 0.00 0.00 0.00 78 1014.0
20260905013103 83 0 0.0 0.0 0.00 0.00 0.00 74 1014.0
20260905012544 84 0 0.0 0.0 0.00 0.00 0.00 73 1013.9
20260905012043 84 0 0.0 0.0 0.00 0.00 0.00 72 1013.9
20260905011600 84 0 0.0 0.0 0.00 0.00 0.00 73 1013.9
20260905011043 83 0 0.0 0.0 0.00 0.00 0.00 74 1013.9
20260905010544 83 0 0.0 0.0 0.00 0.00 0.00 74 1014.0
20260905010107 83 0 0.0 0.0 0.00 0.00 0.00 75 1013.8
20260905005544 84 0 0.0 0.0 0.00 0.00 0.00 75 1013.9
20260905005043 83 0 0.0 1.0 0.00 0.00 0.00 77 1013.8
20260905004606 83 0 0.0 1.0 0.00 0.00 0.00 80 1013.8
20260905004044 83 158 0.0 1.0 0.00 0.00 0.00 79 1013.8
20260905003544 85 0 0.0 0.0 0.00 0.00 0.00 76 1013.7
20260905003103 86 0 0.0 0.0 0.00 0.00 0.00 74 1013.7
20260905002545 87 0 0.0 0.0 0.00 0.00 0.00 72 1013.6
20260905002044 87 0 0.0 0.0 0.00 0.00 0.00 72 1013.6
20260905001611 87 0 0.0 0.0 0.00 0.00 0.00 73 1013.6
20260905001048 87 0 0.0 0.0 0.00 0.00 0.00 73 1013.6
20260905000546 87 0 0.0 0.0 0.00 0.00 0.00 74 1013.6
20260905000108 87 0 0.0 0.0 0.00 0.00 0.00 74 1013.6
20260904235543 88 0 0.0 0.0 0.00 0.00 0.00 74 1013.6
20260904235044 88 0 0.0 0.0 0.00 0.00 0.00 76 1013.6